QPF
0.19 0.07 0.11 0.16 0.08 0.11 0.17 0.11 0.02 0.03 0.01 0.03 0.01 0.00 0.00 0.00 0.00 0.00 0.00 0.00 0.00 0.00 0.00 0.00 0.00 0.00 0.02 0.03 0.03 0.01 0.01 0.05 0.03 0.00 0.02 0.01 0.01 0.00 0.01 0.00 0.03 0.19
0.25 0.19 0.09 0.07 0.10 0.21 0.41 0.38 0.24 0.10 0.03 0.00 0.02 0.02 0.00 0.00 0.00 0.00 0.00 0.00 0.00 0.00 0.00 0.00 0.00 0.00 0.01 0.04 0.07 0.05 0.02 0.09 0.08 0.10 0.02 0.03 0.01 0.00 0.01 0.02 0.07 0.06
0.34 0.23 0.11 0.13 0.11 0.05 0.14 0.11 0.33 0.18 0.13 0.04 0.05 0.01 0.01 0.01 0.00 0.00 0.00 0.00 0.00 0.00 0.00 0.00 0.00 0.00 0.00 0.00 0.08 0.03 0.02 0.09 0.01 0.02 0.04 0.02 0.00 0.01 0.01 0.01 0.01 0.01
0.07 0.13 0.09 0.13 0.14 0.28 0.20 0.41 0.46 0.07 0.14 0.13 0.10 0.09 0.12 0.05 0.00 0.02 0.00 0.00 0.00 0.00 0.00 0.00 0.00 0.00 0.00 0.00 0.05 0.10 0.04 0.05 0.02 0.00 0.01 0.05 0.02 0.04 0.02 0.04 0.08 0.06
0.08 0.03 0.07 0.13 0.15 0.27 0.25 0.13 0.19 0.14 0.24 0.39 0.52 0.06 0.01 0.01 0.01 0.01 0.00 0.00 0.00 0.00 0.00 0.00 0.00 0.00 0.00 0.00 0.01 0.04 0.03 0.07 0.03 0.01 0.00 0.03 0.06 0.02 0.04 0.04 0.07 0.03
0.11 0.02 0.02 0.05 0.05 0.15 0.12 0.28 0.12 0.06 0.09 0.03 0.14 0.08 0.02 0.00 0.01 0.00 0.02 0.01 0.00 0.00 0.00 0.00 0.00 0.00 0.01 0.00 0.00 0.01 0.05 0.07 0.14 0.08 0.02 0.02 0.06 0.03 0.01 0.01 0.02 0.01
0.03 0.00 0.02 0.05 0.03 0.04 0.08 0.12 0.12 0.03 0.16 0.22 0.21 0.05 0.01 0.00 0.00 0.01 0.00 0.01 0.01 0.00 0.00 0.01 0.01 0.01 0.00 0.00 0.00 0.00 0.00 0.01 0.08 0.08 0.02 0.01 0.01 0.01 0.00 0.01 0.02 0.02
0.01 0.02 0.00 0.06 0.05 0.02 0.02 0.03 0.05 0.06 0.03 0.20 0.16 0.04 0.10 0.18 0.01 0.00 0.01 0.01 0.00 0.00 0.00 0.00 0.02 0.02 0.01 0.00 0.01 0.00 0.00 0.01 0.03 0.07 0.01 0.05 0.00 0.00 0.01 0.02 0.03 0.00
0.04 0.02 0.02 0.02 0.02 0.02 0.02 0.02 0.04 0.07 0.07 0.17 0.25 0.09 0.16 0.17 0.09 0.09 0.07 0.07 0.05 0.02 0.00 0.00 0.01 0.02 0.00 0.01 0.02 0.01 0.01 0.01 0.00 0.05 0.03 0.02 0.00 0.00 0.01 0.01 0.01 0.02
0.02 0.01 0.01 0.01 0.03 0.02 0.01 0.01 0.03 0.15 0.28 0.23 0.98 0.77 0.16 0.08 0.35 1.24 0.76 0.76 0.44 0.20 0.02 0.00 0.00 0.01 0.01 0.02 0.01 0.00 0.00 0.01 0.01 0.02 0.01 0.05 0.01 0.01 0.00 0.00 0.00 0.02
0.00 0.00 0.01 0.01 0.01 0.01 0.01 0.01 0.01 0.09 0.15 0.30 0.55 0.31 0.34 0.24 0.39 1.17 0.91 0.41 0.13 0.01 0.01 0.00 0.02 0.01 0.01 0.01 0.02 0.01 0.02 0.02 0.01 0.01 0.02 0.04 0.02 0.00 0.01 0.00 0.01 0.00
0.00 0.00 0.00 0.01 0.01 0.01 0.01 0.01 0.02 0.12 0.29 0.18 0.34 0.24 0.20 0.23 0.28 0.38 0.28 0.31 0.20 0.03 0.01 0.01 0.02 0.03 0.04 0.02 0.01 0.01 0.02 0.02 0.01 0.02 0.01 0.02 0.02 0.01 0.00 0.01 0.01 0.00
0.00 0.00 0.01 0.02 0.02 0.02 0.02 0.02 0.04 0.20 0.30 0.28 0.31 0.60 0.29 0.06 0.03 0.10 0.05 0.06 0.26 0.14 0.03 0.04 0.03 0.03 0.03 0.04 0.06 0.02 0.01 0.01 0.02 0.02 0.00 0.00 0.01 0.00 0.00 0.00 0.01 0.00
0.00 0.00 0.00 0.01 0.02 0.02 0.03 0.03 0.03 0.08 0.34 0.45 0.54 0.67 0.50 0.10 0.05 0.02 0.06 0.06 0.19 0.11 0.13 0.43 0.17 0.22 0.16 0.06 0.06 0.09 0.04 0.01 0.02 0.01 0.00 0.01 0.00 0.00 0.01 0.00 0.00 0.01
0.01 0.01 0.01 0.01 0.03 0.03 0.05 0.04 0.05 0.05 0.33 0.40 0.62 0.34 0.18 0.15 0.26 0.09 0.08 0.34 0.21 0.08 0.05 0.07 0.14 0.16 0.20 0.11 0.00 0.02 0.01 0.02 0.01 0.01 0.01 0.00 0.00 0.00 0.00 0.00 0.00 0.01
0.01 0.01 0.02 0.02 0.02 0.09 0.07 0.08 0.15 0.12 0.11 0.21 0.55 0.50 0.50 0.40 0.20 0.27 0.31 0.16 0.11 0.11 0.18 0.18 0.06 0.03 0.02 0.00 0.00 0.00 0.00 0.01 0.00 0.03 0.01 0.01 0.00 0.00 0.00 0.00 0.01 0.01
0.01 0.02 0.04 0.04 0.07 0.08 0.03 0.03 0.04 0.02 0.09 0.21 0.36 0.48 0.35 0.36 0.72 0.56 0.66 0.30 0.28 0.12 0.12 0.41 0.34 0.04 0.02 0.02 0.00 0.00 0.00 0.02 0.02 0.01 0.01 0.01 0.00 0.00 0.00 0.00 0.00 0.00
0.02 0.02 0.04 0.03 0.05 0.06 0.06 0.07 0.11 0.19 0.24 0.23 0.35 0.32 0.52 0.61 0.54 0.41 0.43 0.32 0.37 0.37 0.19 0.22 0.47 0.47 0.03 0.01 0.01 0.02 0.01 0.01 0.01 0.01 0.01 0.01 0.00 0.00 0.00 0.00 0.00 0.00
0.02 0.02 0.02 0.04 0.04 0.12 0.08 0.05 0.04 0.13 0.17 0.25 0.30 0.38 0.64 0.62 0.85 0.74 0.60 0.90 0.87 1.02 0.62 0.24 0.53 0.71 0.15 0.01 0.01 0.01 0.01 0.01 0.04 0.05 0.02 0.03 0.05 0.03 0.01 0.00 0.00 0.00
0.02 0.01 0.02 0.02 0.03 0.06 0.02 0.02 0.04 0.05 0.17 0.10 0.18 0.47 0.56 0.41 0.53 0.45 0.54 0.62 0.48 0.34 0.43 0.68 0.41 0.44 0.10 0.01 0.00 0.00 0.00 0.01 0.02 0.03 0.14 0.03 0.02 0.05 0.08 0.03 0.01 0.02
0.02 0.03 0.02 0.02 0.03 0.01 0.02 0.02 0.02 0.03 0.04 0.04 0.08 0.29 1.04 0.89 0.46 0.38 0.65 0.73 0.61 0.66 0.36 0.64 0.43 0.32 0.17 0.05 0.00 0.00 0.00 0.00 0.02 0.02 0.08 0.06 0.08 0.01 0.12 0.06 0.06 0.02
0.03 0.02 0.03 0.02 0.01 0.02 0.01 0.02 0.02 0.03 0.04 0.05 0.07 0.09 0.15 0.78 0.98 0.48 0.43 0.66 0.67 0.70 0.54 0.40 0.40 0.34 0.25 0.06 0.02 0.01 0.00 0.00 0.02 0.04 0.06 0.09 0.02 0.03 0.09 0.06 0.09 0.12
0.01 0.02 0.02 0.02 0.02 0.02 0.01 0.01 0.02 0.02 0.03 0.03 0.06 0.12 0.15 0.18 0.80 0.69 0.57 0.68 0.69 0.58 0.54 0.32 0.38 0.20 0.23 0.11 0.03 0.01 0.00 0.00 0.01 0.02 0.10 0.06 0.07 0.07 0.11 0.18 0.22 0.23
0.03 0.02 0.01 0.01 0.01 0.01 0.01 0.02 0.03 0.02 0.02 0.03 0.06 0.06 0.12 0.09 0.25 0.58 1.14 0.72 0.45 0.43 0.58 0.49 0.39 0.39 0.33 0.23 0.05 0.03 0.01 0.00 0.02 0.03 0.11 0.08 0.41 0.64 0.76 0.22 0.18 0.42
0.01 0.01 0.02 0.01 0.02 0.02 0.01 0.01 0.02 0.03 0.02 0.03 0.04 0.10 0.44 0.45 0.19 0.16 0.38 0.74 0.70 0.56 0.62 0.77 0.94 0.66 0.29 0.22 0.13 0.04 0.02 0.02 0.02 0.03 0.08 0.17 0.30 0.34 0.40 0.13 0.17 0.16
0.01 0.05 0.01 0.01 0.01 0.02 0.02 0.01 0.02 0.02 0.01 0.07 0.06 0.11 0.09 0.13 0.25 0.37 0.31 0.34 0.38 0.65 0.69 0.71 0.68 0.48 0.29 0.20 0.10 0.06 0.04 0.03 0.07 0.05 0.09 0.27 0.50 0.32 0.47 0.25 0.19 0.25
MSLP
1012.30 1012.22 1012.54 1012.66 1012.66 1012.90 1013.22 1013.46 1013.54 1013.94 1013.90 1013.74 1013.74 1013.58 1013.54 1013.38 1013.34 1013.58 1013.50 1013.58 1013.78 1013.90 1013.90 1014.14 1014.46 1014.70 1014.90 1015.10 1015.38 1015.58 1015.78 1015.78 1015.74 1015.82 1016.10 1016.26 1016.58 1016.66 1016.66 1016.90 1017.10 1017.26
1012.58 1012.26 1012.42 1012.50 1012.62 1012.90 1013.18 1013.38 1013.42 1013.90 1014.26 1013.74 1013.42 1013.30 1013.10 1013.06 1013.14 1013.22 1013.34 1013.46 1013.62 1013.74 1013.70 1013.90 1014.18 1014.42 1014.74 1015.06 1015.26 1015.58 1015.78 1015.78 1015.94 1015.50 1016.10 1016.26 1016.42 1016.42 1016.50 1016.58 1016.94 1017.10
1012.22 1012.42 1012.38 1012.54 1012.62 1012.82 1013.06 1013.14 1013.26 1013.38 1013.74 1013.90 1013.50 1013.22 1013.06 1012.86 1013.06 1012.94 1012.98 1013.14 1013.38 1013.50 1013.62 1013.62 1013.86 1014.14 1014.42 1014.78 1015.06 1015.38 1015.62 1015.78 1015.90 1015.54 1015.86 1016.26 1016.26 1016.34 1016.26 1016.30 1016.82 1016.98
1011.62 1011.82 1011.94 1012.18 1012.50 1012.62 1012.66 1013.02 1013.10 1013.14 1013.30 1013.90 1014.46 1014.02 1013.90 1013.46 1012.82 1012.98 1012.82 1012.94 1013.18 1013.30 1013.34 1013.42 1013.54 1013.74 1014.02 1014.46 1014.90 1015.22 1015.26 1015.46 1015.46 1015.42 1015.74 1015.94 1016.06 1016.14 1016.30 1016.34 1016.66 1016.90
1011.38 1011.58 1011.70 1011.86 1012.06 1012.22 1012.38 1012.70 1013.06 1013.18 1013.22 1013.22 1013.42 1013.50 1013.30 1012.74 1012.78 1012.82 1012.74 1012.74 1012.78 1012.98 1013.06 1013.26 1013.30 1013.46 1013.62 1014.14 1014.58 1015.06 1015.14 1015.50 1015.38 1015.42 1015.78 1016.10 1016.02 1016.10 1016.02 1016.26 1016.82 1017.10
1011.18 1011.30 1011.38 1011.54 1011.74 1011.94 1012.18 1012.46 1012.70 1012.98 1013.06 1012.98 1013.02 1013.02 1012.90 1012.66 1012.86 1013.06 1012.82 1012.62 1012.50 1012.62 1012.82 1012.90 1013.10 1013.18 1013.38 1013.82 1014.30 1014.70 1014.98 1015.22 1015.18 1015.30 1015.70 1016.02 1015.98 1015.78 1015.86 1015.94 1016.66 1016.94
1010.90 1011.18 1011.26 1011.18 1011.38 1011.58 1011.90 1012.14 1012.34 1012.46 1012.46 1012.38 1012.46 1012.62 1012.26 1012.26 1012.38 1012.78 1012.78 1012.38 1012.22 1012.26 1012.34 1012.54 1012.86 1013.02 1013.10 1013.42 1013.90 1014.42 1014.62 1014.90 1014.98 1015.22 1015.66 1015.82 1015.86 1015.94 1015.66 1015.82 1016.06 1016.38
1010.46 1010.62 1010.74 1010.86 1011.14 1011.38 1011.62 1011.74 1011.98 1012.26 1012.14 1012.26 1012.30 1012.10 1012.18 1012.38 1012.10 1011.94 1011.62 1011.98 1012.06 1011.98 1011.98 1012.06 1012.38 1012.66 1012.78 1013.06 1013.66 1014.06 1014.34 1014.38 1014.74 1015.18 1015.50 1015.66 1015.66 1015.98 1015.82 1015.62 1015.70 1016.18
1010.42 1010.38 1010.50 1010.74 1011.02 1011.18 1011.30 1011.30 1011.38 1011.70 1011.82 1012.10 1012.34 1012.14 1012.02 1011.90 1011.78 1011.90 1011.86 1011.78 1011.66 1011.54 1011.70 1011.82 1011.94 1012.22 1012.42 1012.78 1013.22 1013.62 1013.98 1014.14 1014.38 1014.90 1015.34 1015.62 1015.70 1015.82 1015.78 1015.58 1015.62 1015.86
1010.26 1010.26 1010.38 1010.54 1010.82 1010.86 1011.02 1010.98 1010.98 1011.34 1011.66 1012.06 1011.86 1011.70 1011.58 1011.34 1011.42 1011.78 1011.98 1011.94 1012.02 1011.98 1011.98 1011.82 1011.78 1011.86 1012.06 1012.30 1012.66 1013.02 1013.46 1013.82 1013.98 1014.46 1014.82 1015.10 1015.30 1015.42 1015.46 1015.46 1015.50 1015.62
1009.94 1009.98 1010.22 1010.46 1010.70 1010.66 1010.70 1010.62 1010.66 1011.22 1011.70 1011.78 1011.66 1011.62 1011.54 1011.42 1011.38 1011.30 1011.70 1011.82 1012.02 1012.02 1011.90 1011.78 1011.54 1011.66 1011.90 1012.10 1012.30 1012.54 1012.94 1013.30 1013.58 1013.90 1014.26 1014.58 1014.78 1014.90 1014.90 1015.06 1015.18 1015.30
1009.70 1009.86 1010.10 1010.26 1010.42 1010.46 1010.46 1010.34 1010.38 1010.50 1011.06 1011.18 1011.22 1011.46 1011.46 1011.30 1011.18 1011.30 1011.30 1011.54 1011.70 1011.70 1011.66 1011.66 1011.46 1011.30 1011.54 1011.86 1012.10 1012.34 1012.62 1012.86 1013.14 1013.46 1013.74 1014.10 1014.30 1014.46 1014.58 1014.62 1014.78 1014.90
1009.70 1009.70 1009.74 1009.90 1009.98 1010.10 1010.06 1010.18 1010.22 1010.26 1010.46 1010.70 1010.70 1010.90 1011.02 1011.02 1010.94 1010.94 1010.94 1011.18 1011.46 1011.58 1011.50 1011.46 1011.54 1011.30 1011.22 1011.46 1011.66 1011.94 1012.34 1012.66 1012.94 1013.26 1013.54 1013.78 1013.94 1014.06 1014.18 1014.26 1014.30 1014.34
1009.54 1009.34 1009.38 1009.54 1009.70 1009.78 1009.86 1009.90 1009.98 1010.02 1010.06 1010.22 1010.42 1010.74 1010.78 1010.74 1010.78 1010.74 1010.66 1010.74 1010.86 1011.02 1010.98 1011.18 1011.46 1011.46 1011.22 1011.22 1011.38 1011.62 1011.94 1012.22 1012.42 1012.78 1013.22 1013.50 1013.58 1013.74 1013.82 1013.90 1013.90 1013.90
1009.10 1009.06 1009.14 1009.34 1009.50 1009.58 1009.70 1009.82 1009.82 1009.82 1009.82 1009.98 1010.18 1010.30 1010.26 1010.26 1010.18 1010.22 1010.38 1010.46 1010.50 1010.54 1010.66 1010.86 1011.22 1011.46 1011.18 1010.98 1011.14 1011.42 1011.46 1011.82 1012.10 1012.34 1012.70 1013.10 1013.26 1013.42 1013.50 1013.58 1013.62 1013.62
1008.98 1009.06 1009.14 1009.22 1009.54 1009.78 1009.70 1009.62 1009.62 1009.66 1009.70 1009.78 1009.86 1009.82 1009.78 1009.78 1009.90 1009.90 1009.98 1010.06 1010.22 1010.26 1010.38 1010.66 1011.14 1011.10 1010.94 1010.74 1010.66 1010.90 1011.22 1011.42 1011.74 1012.02 1012.38 1012.74 1013.06 1013.26 1013.30 1013.26 1013.34 1013.42
1008.90 1008.98 1009.10 1009.34 1009.54 1009.78 1009.58 1009.30 1009.26 1009.30 1009.34 1009.46 1009.50 1009.54 1009.50 1009.46 1009.46 1009.58 1009.62 1009.74 1009.82 1009.98 1010.18 1010.58 1010.94 1010.90 1010.82 1010.70 1010.54 1010.50 1010.78 1011.22 1011.66 1012.02 1012.14 1012.42 1012.66 1013.02 1013.22 1013.14 1013.10 1013.18
1008.74 1008.82 1008.94 1009.02 1009.18 1009.42 1009.22 1009.26 1009.14 1009.14 1009.26 1009.30 1009.22 1009.18 1008.98 1008.98 1009.14 1009.10 1009.18 1009.42 1009.54 1009.62 1009.66 1009.98 1010.78 1011.14 1010.78 1010.70 1010.54 1010.50 1010.62 1010.94 1011.30 1011.70 1011.98 1012.22 1012.38 1012.54 1012.70 1012.82 1012.94 1012.94
1008.50 1008.66 1008.70 1008.78 1008.86 1009.02 1009.10 1008.94 1008.94 1009.10 1009.10 1009.02 1009.06 1008.78 1008.62 1008.54 1008.54 1008.74 1008.86 1008.94 1009.10 1009.30 1009.50 1009.46 1010.02 1011.02 1010.98 1010.62 1010.66 1010.66 1010.70 1010.82 1010.98 1011.34 1011.66 1011.86 1012.06 1012.26 1012.42 1012.66 1012.78 1012.90
1008.30 1008.42 1008.54 1008.46 1008.46 1008.66 1008.66 1008.58 1008.70 1008.82 1008.66 1008.58 1008.62 1008.50 1008.54 1008.46 1008.50 1008.58 1008.58 1008.78 1008.90 1009.06 1009.10 1009.26 1009.82 1010.26 1010.78 1010.50 1010.46 1010.62 1010.78 1011.02 1011.10 1011.18 1011.46 1011.78 1011.98 1012.10 1012.34 1012.62 1012.78 1012.94
1008.14 1008.22 1008.34 1008.30 1008.26 1008.30 1008.34 1008.42 1008.42 1008.42 1008.42 1008.42 1008.46 1008.46 1008.46 1008.46 1008.50 1008.58 1008.50 1008.54 1008.66 1008.74 1009.02 1009.42 1009.70 1010.06 1010.74 1010.70 1010.38 1010.58 1010.82 1011.10 1011.22 1011.22 1011.46 1011.82 1011.98 1012.02 1012.22 1012.46 1012.62 1012.70
1007.98 1008.06 1008.14 1008.14 1008.14 1008.18 1008.26 1008.30 1008.22 1008.26 1008.38 1008.30 1008.30 1008.26 1008.14 1008.10 1008.18 1008.22 1008.34 1008.46 1008.58 1008.90 1009.22 1009.38 1009.54 1010.18 1010.78 1010.94 1010.46 1010.62 1010.90 1011.18 1011.26 1011.50 1011.70 1011.82 1011.98 1012.06 1012.18 1012.26 1012.38 1012.66
1007.70 1007.90 1008.06 1008.02 1007.98 1008.14 1008.18 1008.14 1008.18 1008.18 1008.14 1008.06 1008.26 1008.22 1008.26 1008.30 1008.18 1008.06 1008.06 1008.42 1008.66 1008.74 1009.06 1009.26 1009.38 1009.90 1010.58 1010.78 1010.50 1010.62 1010.98 1011.18 1011.34 1011.54 1011.74 1011.94 1012.02 1012.02 1012.10 1012.22 1012.38 1012.58
1007.54 1007.66 1007.82 1007.86 1007.90 1008.06 1008.02 1007.94 1007.86 1007.90 1007.94 1007.90 1008.18 1008.26 1008.34 1008.38 1008.34 1008.26 1008.18 1008.18 1008.54 1009.06 1009.14 1009.42 1009.58 1009.90 1010.62 1010.90 1010.62 1010.66 1010.70 1010.98 1011.22 1011.54 1011.78 1011.94 1012.06 1012.02 1012.14 1012.30 1012.34 1012.46
1007.26 1007.42 1007.54 1007.62 1007.78 1007.82 1007.74 1007.82 1007.82 1007.86 1007.86 1007.86 1007.98 1008.06 1008.22 1008.18 1008.22 1008.38 1008.50 1008.62 1008.74 1008.94 1009.10 1009.50 1009.70 1009.82 1010.06 1010.26 1010.66 1010.66 1010.70 1010.78 1011.10 1011.42 1011.86 1012.10 1012.18 1012.42 1012.34 1012.38 1012.42 1012.38
1007.02 1007.22 1007.26 1007.42 1007.54 1007.54 1007.46 1007.54 1007.50 1007.66 1007.86 1008.02 1008.02 1008.06 1008.14 1008.18 1008.34 1008.50 1008.66 1008.78 1008.82 1008.94 1009.14 1009.30 1009.62 1009.66 1009.78 1010.10 1010.42 1010.58 1010.58 1010.70 1010.90 1011.46 1011.90 1012.26 1012.78 1012.82 1012.82 1012.54 1012.38 1012.34
Thickness
5774 5775 5775 5776 5777 5777 5777 5776 5776 5774 5773 5776 5777 5779 5781 5783 5784 5786 5786 5788 5788 5788 5790 5789 5788 5788 5788 5787 5785 5784 5784 5785 5786 5786 5785 5784 5783 5784 5784 5784 5783 5782
5771 5772 5773 5773 5774 5774 5773 5772 5773 5772 5772 5775 5778 5780 5782 5783 5785 5785 5786 5787 5786 5787 5789 5789 5788 5788 5787 5786 5785 5783 5783 5783 5785 5786 5784 5782 5782 5783 5783 5784 5783 5782
5774 5773 5773 5772 5772 5772 5772 5772 5774 5774 5772 5773 5774 5776 5779 5781 5783 5785 5786 5787 5786 5787 5788 5789 5789 5788 5787 5785 5784 5783 5782 5782 5783 5785 5784 5782 5782 5782 5783 5785 5783 5782
5775 5774 5774 5774 5772 5771 5772 5772 5772 5772 5773 5772 5771 5772 5775 5779 5782 5783 5785 5786 5786 5786 5787 5788 5789 5789 5788 5786 5783 5782 5782 5782 5783 5785 5783 5782 5783 5782 5783 5784 5781 5780
5775 5775 5775 5775 5773 5772 5773 5773 5771 5770 5771 5772 5772 5773 5775 5779 5781 5781 5783 5786 5786 5787 5788 5788 5789 5790 5789 5787 5784 5782 5781 5780 5782 5784 5782 5780 5782 5782 5783 5784 5780 5778
5774 5774 5776 5775 5774 5774 5774 5774 5772 5771 5771 5772 5774 5775 5776 5779 5779 5778 5780 5784 5786 5787 5788 5788 5788 5789 5789 5788 5785 5783 5782 5780 5782 5783 5780 5780 5781 5782 5783 5783 5780 5779
5777 5775 5776 5776 5776 5775 5775 5774 5772 5772 5773 5773 5775 5777 5779 5780 5778 5778 5781 5783 5786 5788 5789 5789 5788 5788 5788 5788 5785 5783 5782 5781 5782 5781 5779 5779 5779 5780 5782 5783 5782 5780
5778 5777 5777 5777 5777 5776 5775 5775 5772 5771 5772 5772 5774 5777 5778 5778 5779 5782 5784 5785 5787 5788 5790 5790 5789 5788 5788 5787 5785 5782 5782 5781 5781 5779 5776 5777 5777 5777 5779 5782 5782 5781
5777 5778 5778 5777 5776 5775 5775 5776 5775 5773 5771 5770 5772 5775 5777 5778 5780 5781 5782 5784 5786 5786 5787 5788 5789 5789 5789 5788 5786 5783 5782 5781 5781 5779 5775 5775 5775 5776 5778 5780 5782 5781
5777 5778 5777 5775 5774 5774 5774 5776 5776 5774 5771 5771 5772 5774 5776 5779 5781 5780 5779 5780 5781 5782 5783 5784 5786 5788 5788 5788 5788 5785 5783 5781 5781 5779 5777 5776 5776 5777 5778 5780 5781 5781
5777 5777 5776 5774 5772 5773 5774 5775 5775 5773 5771 5771 5772 5772 5773 5776 5779 5779 5778 5777 5777 5778 5780 5781 5784 5786 5785 5785 5786 5786 5784 5782 5782 5781 5779 5778 5778 5778 5779 5780 5780 5782
5775 5775 5774 5772 5772 5772 5773 5774 5775 5772 5771 5770 5771 5770 5771 5774 5776 5776 5776 5776 5775 5776 5778 5778 5781 5784 5785 5784 5784 5784 5783 5783 5782 5782 5781 5780 5779 5779 5780 5781 5782 5783
5773 5774 5774 5773 5772 5772 5771 5772 5773 5772 5772 5771 5770 5770 5769 5771 5773 5774 5775 5774 5773 5774 5775 5776 5777 5780 5783 5784 5784 5784 5783 5783 5782 5781 5780 5779 5779 5780 5780 5781 5783 5783
5774 5775 5775 5774 5773 5772 5771 5771 5771 5771 5772 5771 5769 5769 5768 5769 5771 5772 5773 5773 5773 5773 5775 5775 5773 5775 5779 5782 5783 5783 5783 5783 5782 5781 5779 5779 5778 5779 5780 5781 5783 5784
5775 5775 5775 5774 5772 5771 5770 5769 5770 5770 5770 5770 5768 5768 5769 5769 5770 5771 5772 5771 5772 5772 5773 5774 5771 5771 5776 5780 5782 5782 5782 5782 5782 5780 5779 5778 5777 5778 5779 5781 5781 5783
5775 5775 5774 5772 5770 5768 5768 5769 5769 5768 5768 5768 5767 5767 5769 5769 5769 5769 5770 5769 5770 5770 5771 5769 5768 5768 5773 5777 5780 5781 5781 5780 5779 5778 5777 5776 5776 5775 5776 5779 5780 5781
5775 5774 5773 5772 5769 5766 5767 5768 5768 5768 5768 5767 5766 5767 5768 5769 5768 5768 5768 5768 5768 5769 5769 5766 5764 5766 5770 5773 5777 5779 5779 5778 5776 5775 5775 5775 5774 5774 5774 5776 5778 5779
5775 5774 5773 5771 5769 5766 5766 5767 5767 5767 5766 5765 5765 5766 5767 5768 5768 5767 5766 5767 5767 5768 5769 5767 5762 5761 5765 5768 5771 5774 5775 5775 5775 5773 5773 5773 5774 5774 5774 5775 5776 5776
5776 5775 5773 5772 5770 5767 5766 5766 5766 5765 5765 5764 5764 5765 5766 5767 5766 5766 5765 5766 5766 5766 5767 5766 5762 5758 5761 5765 5767 5769 5770 5771 5771 5771 5771 5771 5772 5772 5772 5772 5772 5773
5777 5775 5773 5772 5772 5769 5768 5767 5766 5765 5765 5764 5764 5764 5765 5764 5764 5764 5765 5764 5765 5765 5764 5764 5762 5758 5759 5762 5764 5765 5765 5764 5765 5766 5767 5768 5769 5769 5769 5768 5768 5769
5777 5775 5774 5773 5773 5771 5770 5768 5766 5766 5765 5763 5763 5762 5762 5762 5762 5761 5762 5762 5762 5762 5761 5759 5758 5755 5753 5755 5759 5760 5759 5759 5760 5761 5762 5763 5764 5766 5765 5765 5766 5767
5777 5774 5773 5773 5772 5771 5769 5768 5767 5766 5764 5763 5762 5761 5761 5761 5761 5760 5760 5759 5758 5758 5756 5755 5754 5752 5748 5749 5754 5755 5753 5754 5754 5755 5756 5757 5759 5761 5761 5763 5764 5764
5777 5775 5773 5772 5772 5771 5769 5768 5767 5765 5764 5763 5760 5759 5759 5758 5758 5759 5759 5757 5756 5754 5753 5752 5752 5749 5745 5745 5749 5750 5749 5750 5751 5750 5751 5752 5755 5756 5757 5759 5760 5760
5777 5776 5774 5772 5771 5770 5769 5768 5768 5765 5764 5763 5760 5758 5757 5756 5756 5756 5756 5755 5753 5751 5748 5747 5747 5747 5742 5741 5745 5747 5747 5747 5747 5746 5747 5748 5750 5751 5753 5755 5756 5757
5779 5777 5775 5773 5771 5770 5769 5769 5768 5766 5764 5762 5760 5758 5756 5755 5755 5754 5752 5751 5749 5748 5746 5743 5743 5744 5742 5741 5742 5743 5745 5746 5744 5743 5744 5744 5744 5745 5748 5751 5752 5754
5779 5777 5775 5774 5772 5770 5771 5770 5769 5767 5764 5761 5760 5758 5756 5754 5754 5752 5750 5749 5748 5746 5745 5743 5742 5741 5742 5741 5741 5741 5741 5742 5742 5741 5740 5738 5736 5738 5742 5746 5749 5752